www.pogodaiklimat.ru

Погода и климат >> Архив погоды >> Украина >> Могилев-Подольский


ПОГОДА в Могилев-Подольском

  • Прогноз погоды в Могилев-Подольском
  • Монитор погоды в Могилев-Подольском
  • Климат города

АРХИВ ПОГОДЫ в Могилев-Подольском

Время (UTC), дата Ветер
(напр.,м/с)
 
Видим.   Явления Облачность Т
(С)
Тd
(С)
f
(%)
Тe
(С)
Тes
(С)
Комфортность P
(гПа)
Po
(гПа)
Тmin
(С)
Tmax
(С)
R
(мм)
R24
(мм)
S
(см)
15 17.11 В 1 10 км 10/10 800 м
[Sc]
+4.6 +2.1 84 +3 +3 1023.7 1014.0
18 17.11 ЮВ 1 10 км {ливн. осадки} 10/10 720 м
[Sc]
+4.3 +2.3 87 +3 +3 1023.4 1013.6 +5.6 0.0
21 17.11 ЮВ 1 10 км 10/4 600 м
[Sc As op]
+4.2 +2.5 89 +3 +3 1022.8 1013.1
00 18.11 штиль 0 10 км 10/5 600 м
[Sc As op]
+4.3 +2.3 87 +3 +3 1022.0 1012.3
03 18.11 В 1 10 км 10/4 600 м
[Sc As op]
+4.2 +2.2 87 +3 +3 1021.0 1011.3
06 18.11 В 1 10 км 10/10 750 м
[Sc]
+4.2 +2.2 87 +3 +3 1020.4 1010.7 +4.1
09 18.11 штиль 0 10 км 10/10 630 м
[Sc]
+5.3 +2.3 81 +4 +4 1019.8 1010.1
12 18.11 Ю 1 10 км слабый ливневой дождь 10/8 720 м
[Cb calv Ac und]
+6.1 +3.2 82 +5 +5 1017.6 1008.0
15 18.11 ЮВ 1 2000 м слабый ливневой дождь 10/10 570 м
[Cb calv]
+5.7 +3.6 86 +5 +5 1016.3 1006.7
18 18.11 штиль 0 2000 м слабый ливневой дождь 10/6 630 м
[Cb calv Ac und]
+5.5 +4.3 92 +4 +4 1015.2 1005.6 +6.4 0.3
21 18.11 штиль 0 2000 м слабый ливневой дождь 10/10 600 м
[Cb cap]
+5.3 +4.6 95 +4 +4 1014.3 1004.7
00 19.11 штиль 0 2000 м слабый дождь {ливн. осадки} 10/10 420 м
[Frnb Ns]
+5.1 +4.6 97 +4 +4 1012.8 1003.2
03 19.11 штиль 0 2000 м слабый дождь 10/10 420 м
[Frnb Ns]
+5.4 +4.7 95 +4 +4 1011.5 1001.9
06 19.11 штиль 0 500 м слабый дождь {туман} ?/? +5.1 +5.1 100 +4 +4 1011.0 1001.4 +5.0 2
09 19.11 штиль 0 4000 м слабый дождь {туман} 10/10 420 м
[Frnb Ns]
+5.9 +5.0 94 +5 +5 1011.0 1001.4
12 19.11 С 1 20 км {дождь, туман} 10/6 800 м
[Sc Ac und]
+6.0 +4.1 88 +5 +5 1011.0 1001.4
15 19.11 С 1 10 км 8/4 600 м
[Sc Ac trans]
+4.6 +2.9 89 +3 +3 1011.0 1001.4
18 19.11 штиль 0 2000 м дымка ясно +0.9 +0.4 96 -0 -0 1011.7 1001.9 +6.1 0.7
21 19.11 штиль 0 200 м туман ?/? +0.2 -0.1 98 -1 -1 1012.1 1002.3
00 20.11 штиль 0 200 м туман ?/? -0.2 -0.2 100 -2 -2 1011.7 1001.9
03 20.11 штиль 0 200 м туман ?/? -0.9 -0.9 100 -2 -2 1011.5 1001.7
06 20.11 штиль 0 200 м туман ?/? -1.9 -1.9 100 -3 -3 1011.6 1001.7 -2.2
09 20.11 штиль 0 200 м туман ?/? -1.0 -1.0 100 -2 -2 1012.2 1002.4
12 20.11 штиль 0 200 м туман ?/? +1.4 +1.1 98 0 0 1012.0 1002.3
15 20.11 С 1 50 м туман ?/? +1.7 +1.7 100 -0 -0 1012.1 1002.4
18 20.11 СЗ 1 50 м туман ?/? +0.7 +0.7 100 -2 -2 1012.3 1002.5 +3.0
21 20.11 штиль 0 2000 м дымка {туман} 9/0
[Ac trans]
+0.8 +0.5 98 -1 -1 1013.0 1003.2
00 21.11 СЗ 2 2000 м дымка {туман} 9/4 600 м
[Sc Ac trans]
-0.6 -1.8 92 -4 -4 1013.1 1003.3
03 21.11 С 1 2000 м дымка 10/10 720 м
[Sc]
+0.5 -0.9 90 -2 -2 1013.1 1003.3
06 21.11 С 1 10 км 9/8 870 м
[Sc Ac trans]
-1.8 -3.0 91 -4 -4 1013.4 1003.5 -2.1
09 21.11 СЗ 2 20 км {ливн. осадки} 10/5 600 м
[Cb calv Ac und]
+1.4 +0.6 94 -2 -2 1013.9 1004.1
12 21.11 С 2 20 км {ливн. осадки} 4/4 600 м
[Cb calv]
+3.6 +1.3 85 +1 +2 1013.8 1004.1
15 21.11 СЗ 1 10 км 8/5 600 м
[Cb calv Ac trans]
+2.8 -1.4 74 +1 +1 1014.4 1004.7
18 21.11 С 1 10 км 4/0
[Ac trans]
+0.3 -1.4 88 -2 -2 1015.0 1005.2 +4.6 0.4
21 21.11 штиль 0 10 км 3/0
[Ac trans]
-1.8 -3.0 91 -3 -3 1015.7 1005.8
00 22.11 штиль 0 10 км ясно -2.7 -3.4 95 -4 -4 1015.7 1005.8
03 22.11 штиль 0 10 км 9/0
[Ac trans]
-1.6 -2.4 94 -3 -3 1015.7 1005.8
06 22.11 штиль 0 10 км 10/5 600 м
[Sc Ac und]
-1.0 -2.3 91 -2 -2 1015.7 1005.8 -2.9
09 22.11 штиль 0 10 км в посл. час ливневой снег 10/8 750 м
[Cb calv Ac und]
+0.6 -0.8 90 -1 -0 1016.8 1007.0
12 22.11 С 1 20 км {ливн. осадки} 10/5 600 м
[Cb calv Ac und]
+1.8 -0.4 85 0 0 1016.8 1007.0
15 22.11 штиль 0 10 км 6/3 600 м
[Sc Ac trans]
+0.6 -0.8 90 -1 -1 1017.0 1007.2
18 22.11 штиль 0 2000 м дымка ясно -2.0 -2.6 96 -3 -3 1018.4 1008.5 +1.9 0.4
21 22.11 В 1 200 м туман ?/? -3.0 -3.4 97 -5 -5 1019.7 1009.7
00 23.11 В 1 50 м переохл. туман ?/? -3.6 -3.8 99 -6 -6 1020.5 1010.5
03 23.11 В 1 50 м переохл. туман ?/? -4.4 -4.6 99 -7 -7 1021.7 1011.6
06 23.11 ЮВ 1 200 м переохл. туман ?/? -4.4 -4.6 99 -7 -7 1022.4 1012.3 -4.7
09 23.11 штиль 0 20 км {туман} 8/3 600 м
[Sc Ac trans]
-0.9 -1.9 93 -2 -1 1022.8 1012.9
12 23.11 Ю 2 20 км {туман} 8/4 600 м
[Sc Ac trans]
+3.8 -0.5 73 +1 +2 1022.2 1012.4
15 23.11 ЮВ 1 10 км 1/0
[Ac trans]
+1.1 0.0 92 -1 -1 1022.1 1012.2
18 23.11 В 1 2000 м дымка ясно -0.8 -1.4 96 -3 -3 1022.6 1012.7 +3.9
21 23.11 В 1 200 м переохл. туман ?/? -1.9 -2.1 99 -4 -4 1022.9 1012.9
00 24.11 штиль 0 200 м переохл. туман ?/? -2.6 -2.9 98 -4 -4 1022.9 1012.9
03 24.11 ЮВ 1 200 м переохл. туман ?/? -3.0 -3.4 97 -5 -5 1022.3 1012.3
06 24.11 В 1 4000 м дымка {туман} 5/3 600 м
[Sc Ac trans]
-3.1 -3.8 95 -6 -6 1022.3 1012.3 -3.4
09 24.11 В 1 4000 м дымка 10/10 700 м
[Sc]
+0.3 -2.1 84 -2 -2 1023.5 1013.6
12 24.11 Ю 1 10 км 10/8 750 м
[Sc Ac und]
+2.6 -0.7 79 +1 +1 1023.1 1013.3

 

Местоположение метеостанции Могилев-Подольский (Винницкая область, Украина): широта 48.45 долгота 27.78 высота над уровнем моря 78 м.

В архиве по умолчанию представлена погода в Могилев-Подольском за последнюю неделю. Архивные данные за месяц целиком и за предыдущие месяцы, начиная с января 2011 года, Вы можете получить, выбрав интересующий диапазон дат из раскрывающегося списка и нажав кнопку "Ввод!".

Внимание! Время в таблицах - всемирное. Для получения местного времени необходимо прибавить поправку, которая в Могилев-Подольском равна 2 ч.

Смотрите также архив погоды в соседних городах и на ближайших метеорологических станциях:

Погода в Новоднестровске (Черновицкая область, Украина) (28 км)
Погода в Сороках (Молдова) (47 км)
Погода в Бричанах (Молдова) (53 км)
Погода в Новой Ушице (Хмельницкая область, Украина) (58 км)
Погода в Жмеринке (Винницкая область, Украина) (71 км)
Погода в Бельцах (Молдова) (76 км)
Погода в Stanca Stefanesti (Румыния) (81 км)
Погода в Каменке (Молдова) (83 км)
Погода в Каменец-Подольском (Хмельницкая область, Украина) (85 км)
Погода в Darabani (Румыния) (93 км)

Пояснения к столбцам:

Ветер - указаны скорость ветра в м/с - средняя за 10 мин, порывы в срок и между сроками (в фигурных скобках) и направление, откуда дует ветер: С - северный, СВ - северо-восточный, В - восточный, ЮВ - юго-восточный, Ю - южный, ЮЗ - юго-западный, З - западный, СЗ - северо-западный.
Видимость - горизонтальная дальность видимости в метрах или километрах. При видимости от 1 до 10 км при отсутствии осадков обычно наблюдается дымка, при ухудшении видимости до 1 км и менее - туман. В сухую погоду видимость может ухудшаться дымом, пылью или мглою.
Явления - указаны атмосферные явления, наблюдавшиеся в срок или в последний час перед сроком; фигурными скобками обозначены явления, наблюдавшиеся между сроками (за 1-3 часа до срока); квадратными скобками обозначены град или гололедные отложения с указанием их диаметра в мм.
Облачность - указаны через наклонную черту общая и нижняя облачность в баллах и высота нижней границы облаков в метрах; квадратными скобками обозначены формы облаков: Ci - перистые, Cs - перисто-слоистые, Cc - перисто-кучевые, Ac - высококучевые, As - высокослоистые, Sc - слоисто-кучевые, Ns - слоисто-дождевые, Cu - кучевые, Cb - кучево-дождевые. Подробнее классификацию облаков см. в Атласе облаков (PDF).
T - Температура воздуха - температура, измеренная на высоте 2 м над землей.
Td - Температура точки росы - температура, при понижении до которой содержащийся в воздухе водяной пар достигнет насыщения.
f - Относительная влажность воздуха - влажноcть воздуха, измеренная на высоте 2 м над землей.
Te - Эффективная температура - температура, которую ощущает одетый по сезону человек в тени. Характеристика душности погоды. При расчете учитывается влияние влажности воздуха и скорости ветра на теплоощущения человека.
Tes - Эффективная температура на солнце - температура, которую ощущает человек, с поправкой на солнечный нагрев. Характеристика знойности погоды. Зависит от высоты солнца над горизонтом, облачности и скорости ветра. Ночью, в пасмурную погоду, а также при ветре 12 м/с и более поправка равна нулю.
P - Атмосферное давление - приведенное к уровню моря атмосферное давление.
Po - Атмосферное давление - измеренное на уровне метеостанции атмосферное давление.
Tmin - Минимальная температура - минимум температуры воздуха на высоте 2 м над землей.
Tmax - Максимальная температура - максимум температуры воздуха на высоте 2 м над землей.
R - Количество осадков - Количество выпавших осадков за период времени, мм. При наведении курсора мыши на число - период времени, за который выпало указанное количество осадков.
R24 - Количество осадков - Количество выпавших осадков за 24 часа, мм.
S - Снежный покров - Высота снежного покрова, см. При наведении курсора мыши на число - состояние снежного покрова и степень покрытия местности в баллах.